Stations météo

Publicité
Marseille/Marignane, France (7650): Température de l'air & dewpoint: 16.09.2018 17:00:00 - 22.09.2018 17:00:00 (CEST)Marseille/Marignane, France (7650): Température de l'air 5cm: 16.09.2018 17:00:00 - 22.09.2018 17:00:00 (CEST)Marseille/Marignane, France (7650): Température de l'air -20cm & Température de l'air -100cm: 16.09.2018 17:00:00 - 22.09.2018 17:00:00 (CEST)Marseille/Marignane, France (7650): Vitesse du vent & gusts: 16.09.2018 17:00:00 - 22.09.2018 17:00:00 (CEST)Marseille/Marignane, France (7650): Direction du vent: 16.09.2018 17:00:00 - 22.09.2018 17:00:00 (CEST)Marseille/Marignane, France (7650): reduced air pressure: 16.09.2018 17:00:00 - 22.09.2018 17:00:00 (CEST)Marseille/Marignane, France (7650): visibility: 16.09.2018 17:00:00 - 22.09.2018 17:00:00 (CEST)Marseille/Marignane, France (7650): Ensoleillement: 16.09.2018 17:00:00 - 22.09.2018 17:00:00 (CEST)Marseille/Marignane, France (7650): Quantités de précipitations: 16.09.2018 17:00:00 - 22.09.2018 17:00:00 (CEST)
Date & Time tt [°C] td [°C] tt 5cm [°C] tt -20cm [°C] tt -100cm [°C] ff [km/h] ff [knt] fx [km/h] fx [knt] dd ppp [hPa] vv [km] sd [min] rr [mm]
22.09.2018 17:00:00 28,3 0,1 31,2 25,3 22,8 33 18 45 24 NNW 1017,9 14 60 0,0
22.09.2018 16:00:00 27,7 7,0 31,0 24,9 22,7 22 12 40 22 NW 1018,5 16 60 0,0
22.09.2018 15:00:00 26,9 7,4 30,1 24,4 22,8 30 16 42 23 NW 1019,0 16 60 0,0
22.09.2018 14:00:00 25,3 8,7 28,2 23,8 22,7 23 12 51 27 NNW 1019,2 17 60 0,0
22.09.2018 13:00:00 23,3 8,2 24,2 23,3 22,7 25 14 48 26 NW 1019,6 19 32 0,0
22.09.2018 12:00:00 21,9 9,4 23,1 22,9 22,7 30 16 46 25 NNW 1019,7 20 60 0,0
22.09.2018 11:00:00 20,7 10,2 20,5 22,7 22,8 27 15 42 23 NW 1019,9 26 46 0,0
22.09.2018 10:00:00 19,4 10,1 17,9 22,9 22,8 28 15 41 22 NNW 1019,8 20 50 0,0
22.09.2018 09:00:00 17,4 9,6 16,9 23,2 22,8 29 16 47 25 NW 1019,9 50 0 0,0
22.09.2018 08:00:00 17,6 9,0 17,1 23,5 22,8 26 14 40 22 NW 1019,6 47 0 0,0
22.09.2018 07:00:00 18,3 8,8 17,7 23,9 22,7 29 16 49 27 NNW 1019,2 60 0 0,0
22.09.2018 06:00:00 18,9 9,7 18,3 24,2 22,7 28 15 47 25 NW 1018,9 60 0 0,0
22.09.2018 05:00:00 19,1 10,1 18,6 24,6 22,8 18 10 35 19 NNW 1018,6 60 0 0,0
22.09.2018 04:00:00 19,6 10,8 19,3 24,9 22,8 27 15 48 26 NW 1018,8 60 0 0,0
22.09.2018 03:00:00 21,2 12,9 20,8 25,2 22,8 19 10 32 18 NW 1018,8 60 0 0,0
22.09.2018 02:00:00 22,8 13,8 22,0 25,5 22,8 19 11 31 17 WNW 1018,7 60 0 0,0
22.09.2018 01:00:00 24,1 14,2 23,5 25,8 22,8 18 10 49 26 NW 1018,7 60 0 0,0
22.09.2018 00:00:00 24,6 14,4 24,0 26,1 22,8 35 19 46 25 WNW 1018,0 60 0 0,0
21.09.2018 23:00:00 24,9 15,0 24,4 26,4 22,8 34 18 47 25 WNW 1017,4 59 0 0,0
21.09.2018 22:00:00 25,7 14,5 22,1 26,8 22,7 26 14 36 19 WNW 1017,2 49 0 0,0
21.09.2018 21:00:00 24,5 17,7 22,3 27,2 22,8 4 2 9 5 S 1016,8 20 0 0,0
21.09.2018 20:00:00 24,8 18,3 22,8 27,6 22,8 8 4 19 11 WSW 1016,1 19 3 0,0
21.09.2018 19:00:00 25,8 18,5 25,6 27,7 22,7 14 7 29 16 SW 1015,9 26 37 0,0
21.09.2018 18:00:00 27,7 19,5 29,8 27,7 22,8 22 12 27 15 WSW 1015,3 19 60 0,0
21.09.2018 17:00:00 29,4 18,5 31,8 27,5 22,8 17 9 25 13 WSW 1015,6 14 55 0,0
21.09.2018 16:00:00 29,8 17,9 33,1 27,0 22,7 13 7 22 12 WSW 1015,8 10 60 0,0
21.09.2018 15:00:00 29,0 17,8 33,8 26,2 22,8 14 7 21 11 W 1016,2 10 60 0,0
21.09.2018 14:00:00 29,1 17,0 32,9 25,3 22,8 18 10 25 13 WSW 1016,6 9 60 0,0
21.09.2018 13:00:00 28,3 19,2 32,2 24,3 22,7 21 11 28 15 W 1016,8 0,8 60 0,0
21.09.2018 12:00:00 28,4 15,7 31,8 23,5 22,8 8 4 15 8 W 1016,9 0,3 60 0,0
21.09.2018 11:00:00 26,9 18,5 30,9 22,9 22,8 7 4 12 6 W 1017,1 15 60 0,0
21.09.2018 10:00:00 24,9 17,6 26,3 22,7 22,7 4 2 9 5 N 1016,9 13 60 0,0
21.09.2018 09:00:00 22,9 17,4 18,7 22,8 22,7 0 0 10 5 N 1016,4 16 48 0,0
21.09.2018 08:00:00 19,8 15,4 16,1 23,1 22,7 6 3 16 8 ESE 1016,3 15 0 0,0
21.09.2018 07:00:00 18,0 15,3 16,0 23,4 22,7 12 7 18 10 ESE 1016,0 14 0 0,0
21.09.2018 06:00:00 19,4 15,9 15,6 23,7 22,7 4 2 8 4 ESE 1016,2 19 0 0,0
21.09.2018 05:00:00 19,1 15,2 16,2 24,1 22,7 8 4 12 7 SSE 1016,1 22 0 0,0
21.09.2018 04:00:00 20,4 15,6 16,3 24,4 22,7 2 1 11 6 ENE 1016,4 20 0 0,0
21.09.2018 03:00:00 19,9 15,9 17,3 24,8 22,8 7 4 13 7 SE 1016,8 20 0 0,0
21.09.2018 02:00:00 21,4 18,0 18,1 25,1 22,7 4 2 10 5 NNE 1017,1 20 0 0,0
21.09.2018 01:00:00 21,2 17,0 18,2 25,5 22,8 9 5 16 9 SSE 1017,2 19 0 0,0
21.09.2018 00:00:00 22,3 17,9 18,6 25,9 22,7 6 3 11 6 NNE 1017,4 20 0 0,0
20.09.2018 23:00:00 22,3 18,5 19,0 26,4 22,8 2 1 8 4 SSE 1017,4 21 0 0,0
20.09.2018 22:00:00 23,2 18,7 19,1 26,9 22,8 5 3 9 5 ESE 1017,0 29 0 0,0
20.09.2018 21:00:00 23,5 17,0 21,2 27,3 22,8 8 4 16 9 SSE 1016,8 33 0 0,0
20.09.2018 20:00:00 24,8 17,3 23,6 27,6 22,7 7 4 20 11 SSE 1016,5 41 19 0,0
20.09.2018 19:00:00 26,9 16,8 28,0 27,9 22,7 12 6 30 16 S 1016,6 47 60 0,0
20.09.2018 18:00:00 28,6 16,2 32,0 28,0 22,8 18 10 26 14 SSW 1016,4 21 60 0,0
20.09.2018 17:00:00 29,2 16,4 34,0 27,8 22,7 20 11 29 16 S 1016,6 18 60 0,0
20.09.2018 16:00:00 29,7 16,8 35,5 27,3 22,7 20 11 31 17 S 1016,9 15 60 0,0
20.09.2018 15:00:00 30,7 16,3 36,5 26,4 22,7 21 12 31 17 SSW 1017,1 16 60 0,0
20.09.2018 14:00:00 30,9 17,6 34,6 25,4 22,7 15 8 22 12 WSW 1017,4 16 60 0,0
20.09.2018 13:00:00 29,0 18,7 32,4 24,4 22,7 13 7 17 9 W 1017,9 17 60 0,0
20.09.2018 12:00:00 26,8 18,1 30,5 23,6 22,7 11 6 16 9 W 1018,5 15 60 0,0
20.09.2018 11:00:00 25,2 17,4 28,0 23,1 22,8 6 4 13 7 W 1018,7 17 60 0,0
20.09.2018 10:00:00 23,8 17,3 25,8 23,0 22,7 6 4 10 5 WNW 1018,6 18 60 0,0
20.09.2018 09:00:00 22,8 17,7 19,8 23,1 22,8 4 2 13 7 SSE 1018,5 18 47 0,0
20.09.2018 08:00:00 20,5 16,3 16,4 23,3 22,7 2 1 11 6 SE 1018,7 20 0 0,0
20.09.2018 07:00:00 18,1 15,7 16,3 23,6 22,8 9 5 11 6 SE 1018,6 15 0 0,0
20.09.2018 06:00:00 19,4 16,1 16,4 24,0 22,8 3 2 12 7 ESE 1018,7 19 0 0,0
20.09.2018 05:00:00 18,9 16,1 16,9 24,3 22,7 7 4 10 6 SE 1018,7 19 0 0,0
20.09.2018 04:00:00 18,9 16,3 17,3 24,6 22,8 9 5 14 8 SE 1019,0 23 0 0,0
20.09.2018 03:00:00 19,4 16,4 17,6 25,0 22,7 7 4 13 7 SE 1019,4 23 0 0,0
20.09.2018 02:00:00 19,4 16,6 18,2 25,3 22,8 8 4 12 7 SE 1019,8 26 0 0,0
20.09.2018 01:00:00 20,1 16,7 18,5 25,7 22,8 10 5 13 7 SE 1020,0 25 0 0,0
20.09.2018 00:00:00 20,7 16,7 19,6 26,1 22,8 12 6 16 9 SE 1020,1 27 0 0,0
19.09.2018 23:00:00 22,8 17,7 20,2 26,5 22,8 4 2 10 5 SSE 1019,9 27 0 0,0
19.09.2018 22:00:00 23,5 18,2 21,5 26,9 22,8 8 4 11 6 W 1019,6 35 0 0,0
19.09.2018 21:00:00 24,8 18,7 20,7 27,4 22,8 8 4 16 9 W 1019,1 39 0 0,0
19.09.2018 20:00:00 25,5 18,9 23,7 27,7 22,8 12 7 27 14 WSW 1018,8 39 21 0,0
19.09.2018 19:00:00 27,4 18,7 27,5 27,9 22,7 21 12 34 18 WSW 1018,5 33 60 0,0
19.09.2018 18:00:00 28,5 18,9 30,6 27,9 22,7 24 13 33 18 WSW 1018,0 19 60 0,0
19.09.2018 17:00:00 29,9 19,6 33,5 27,7 22,8 21 12 28 15 WSW 1018,0 13 60 0,0
19.09.2018 16:00:00 30,2 16,6 34,9 27,2 22,7 14 7 23 12 WSW 1018,4 10 60 0,0
19.09.2018 15:00:00 30,2 16,6 33,0 26,4 22,7 13 7 24 13 W 1018,9 10 60 0,0
19.09.2018 14:00:00 28,6 19,0 33,0 25,4 22,7 14 7 25 13 W 1019,6 13 60 0,0
19.09.2018 13:00:00 28,0 18,7 31,9 24,5 22,8 13 7 26 14 WSW 1020,0 15 60 0,0
19.09.2018 12:00:00 26,9 19,3 29,2 23,7 22,8 12 6 26 14 WSW 1020,4 17 60 0,0
19.09.2018 11:00:00 24,4 19,5 28,6 23,2 22,8 10 6 15 8 W 1020,8 17 60 0,0
19.09.2018 10:00:00 24,1 19,4 25,9 23,0 22,7 7 4 11 6 W 1020,4 16 60 0,0
19.09.2018 09:00:00 22,6 18,8 20,1 23,1 22,8 4 2 21 11 ENE 1019,8 17 47 0,0
19.09.2018 08:00:00 19,6 17,9 17,5 23,3 22,7 8 5 14 7 E 1019,5 15 0 0,0
19.09.2018 07:00:00 19,0 17,3 17,3 23,6 22,7 6 3 12 6 ESE 1019,4 15 0 0,0
19.09.2018 06:00:00 18,7 17,2 17,2 23,9 22,8 10 5 13 7 SE 1019,0 13 0 0,0
19.09.2018 05:00:00 19,1 17,6 17,3 24,2 22,8 7 4 11 6 SE 1018,6 12 0 0,0
19.09.2018 04:00:00 19,3 18,0 17,8 24,5 22,8 9 5 11 6 SE 1018,6 11 0 0,0
19.09.2018 03:00:00 19,7 18,2 18,5 24,8 22,8 9 5 11 6 SE 1019,1 11 0 0,0
19.09.2018 02:00:00 20,3 18,8 19,1 25,1 22,8 5 3 7 4 SSE 1019,6 13 0 0,0
19.09.2018 01:00:00 20,9 19,0 19,5 25,4 22,7 5 3 9 5 SE 1019,8 13 0 0,0
19.09.2018 00:00:00 21,1 19,0 20,2 25,8 22,8 6 3 12 7 SSE 1019,7 15 0 0,0
18.09.2018 23:00:00 23,0 20,7 20,3 26,1 22,7 9 5 13 7 N 1019,2 19 0 0,0
18.09.2018 22:00:00 23,5 20,8 21,7 26,4 22,8 3 2 10 5 S 1019,0 18 0 0,0
18.09.2018 21:00:00 23,2 20,5 22,2 26,8 22,8 7 4 13 7 SSW 1018,2 20 0 0,0
18.09.2018 20:00:00 23,9 20,2 23,1 27,0 22,8 9 5 18 10 SSW 1017,6 26 23 0,0
18.09.2018 19:00:00 25,5 19,9 26,1 27,2 22,8 13 7 28 15 SSW 1017,4 29 27 0,0
18.09.2018 18:00:00 26,2 19,8 27,2 27,2 22,7 17 9 29 16 S 1017,2 20 9 0,0
18.09.2018 17:00:00 26,4 18,8 27,6 27,0 22,7 23 12 41 22 S 1017,6 17 21 0,0
18.09.2018 16:00:00 27,8 19,3 30,3 26,6 22,8 26 14 36 19 SSE 1017,8 12 36 0,0
18.09.2018 15:00:00 28,7 18,5 31,2 25,9 22,7 17 9 27 14 S 1018,0 14 40 0,0
18.09.2018 14:00:00 27,5 18,2 28,8 25,2 22,8 12 7 21 11 W 1018,5 14 28 0,0
18.09.2018 13:00:00 26,6 17,4 28,3 24,4 22,7 11 6 17 9 WNW 1018,4 15 35 0,0
18.09.2018 12:00:00 26,9 17,9 29,9 23,6 22,8 14 8 19 10 W 1018,9 18 58 0,0
18.09.2018 11:00:00 26,5 18,1 27,6 23,1 22,8 9 5 16 8 NW 1019,1 20 56 0,0
18.09.2018 10:00:00 24,4 18,1 24,7 23,0 22,7 8 4 12 7 NNE 1019,2 20 57 0,0
18.09.2018 09:00:00 22,0 17,4 20,3 23,1 22,8 6 3 12 6 NNE 1019,1 21 50 0,0
18.09.2018 08:00:00 19,6 16,8 17,3 23,3 22,7 3 1 10 5 E 1018,9 16 0 0,0
18.09.2018 07:00:00 19,7 16,3 16,8 23,6 22,7 9 5 13 7 ENE 1018,6 32 0 0,0
18.09.2018 06:00:00 19,0 16,8 17,6 23,9 22,7 10 6 16 9 ESE 1018,8 24 0 0,0
18.09.2018 05:00:00 19,7 17,1 17,7 24,2 22,7 5 3 11 6 E 1018,6 23 0 0,0
18.09.2018 04:00:00 19,8 17,0 17,8 24,5 22,8 3 2 14 7 SW 1018,5 28 0 0,0
18.09.2018 03:00:00 19,6 17,0 18,5 24,8 22,8 10 5 19 11 SE 1018,6 27 0 0,0
18.09.2018 02:00:00 21,1 17,7 19,9 25,1 22,7 11 6 19 11 E 1018,7 31 0 0,0
18.09.2018 01:00:00 21,2 18,9 19,8 25,5 22,8 8 4 14 8 ENE 1019,2 16 0 0,0
18.09.2018 00:00:00 21,6 18,6 20,0 25,8 22,7 8 4 12 7 ESE 1019,4 32 0 0,0
17.09.2018 23:00:00 22,4 19,4 20,6 26,2 22,7 7 4 11 6 E 1019,4 33 0 0,0
17.09.2018 22:00:00 22,9 19,7 21,6 26,5 22,7 6 3 14 8 SSE 1019,4 28 0 0,0
17.09.2018 21:00:00 23,1 20,1 22,3 26,9 22,8 8 5 14 8 S 1019,0 24 0 0,0
17.09.2018 20:00:00 23,5 19,6 23,0 27,2 22,7 10 5 23 13 S 1018,4 27 24 0,0
17.09.2018 19:00:00 25,0 19,4 26,6 27,4 22,7 18 10 28 15 SSW 1018,3 37 60 0,0
17.09.2018 18:00:00 25,8 19,2 29,7 27,5 22,8 19 10 41 22 S 1018,4 16 60 0,0
17.09.2018 17:00:00 27,1 18,1 32,3 27,3 22,8 22 12 32 17 S 1018,7 13 60 0,0
17.09.2018 16:00:00 27,9 17,7 33,4 26,7 22,7 21 11 31 17 SSW 1019,2 13 60 0,0
17.09.2018 15:00:00 27,5 18,5 32,9 26,0 22,8 17 9 35 19 S 1019,8 10 60 0,0
17.09.2018 14:00:00 28,1 18,8 28,0 25,2 22,7 16 9 32 18 SW 1020,3 10 41 0,0
17.09.2018 13:00:00 26,5 17,3 29,2 24,3 22,7 12 6 17 9 W 1020,7 10 48 0,0
17.09.2018 12:00:00 26,5 17,8 30,4 23,5 22,7 10 5 13 7 WNW 1021,0 13 60 0,0
17.09.2018 11:00:00 25,3 18,2 28,8 23,1 22,7 8 4 11 6 W 1021,2 14 60 0,0
17.09.2018 10:00:00 23,7 18,1 23,8 22,9 22,7 4 2 16 8 NNE 1021,2 18 46 0,0
17.09.2018 09:00:00 21,7 17,3 20,5 23,1 22,8 6 4 13 7 N 1021,0 17 47 0,0
17.09.2018 08:00:00 19,9 16,9 16,3 23,3 22,8 3 2 13 7 SE 1020,9 15 19 0,0
17.09.2018 07:00:00 18,5 16,3 16,1 23,6 22,7 7 4 14 8 ESE 1020,5 16 0 0,0
17.09.2018 06:00:00 18,7 15,8 16,6 23,9 22,7 7 4 12 7 ESE 1020,5 17 0 0,0
17.09.2018 05:00:00 17,9 16,1 16,7 24,3 22,7 9 5 11 6 SE 1020,6 18 0 0,0
17.09.2018 04:00:00 20,0 16,8 16,9 24,6 22,7 0 0 10 6 N 1020,9 27 0 0,0
17.09.2018 03:00:00 18,8 16,4 17,0 25,0 22,7 8 5 11 6 SE 1021,3 30 0 0,0
17.09.2018 02:00:00 19,2 16,2 17,9 25,3 22,8 10 5 12 6 SE 1021,6 30 0 0,0
17.09.2018 01:00:00 20,7 16,9 18,6 25,7 22,8 5 3 9 5 SE 1021,6 20 0 0,0
17.09.2018 00:00:00 21,2 17,0 19,0 26,1 22,7 4 2 8 4 SSE 1021,7 30 0 0,0
16.09.2018 23:00:00 21,3 17,3 19,7 26,5 22,7 6 4 10 5 SSE 1022,2 30 0 0,0
16.09.2018 22:00:00 23,3 17,1 20,9 26,9 22,8 3 1 7 4 S 1021,8 42 0 0,0
16.09.2018 21:00:00 23,6 17,3 22,0 27,3 22,7 3 1 9 5 S 1021,4 48 0 0,0
16.09.2018 20:00:00 24,1 17,8 23,4 27,6 22,7 6 4 11 6 SSW 1021,2 46 7 0,0
16.09.2018 19:00:00 25,2 16,3 25,6 27,8 22,7 6 4 19 10 S 1020,9 20 0 0,0
16.09.2018 18:00:00 25,6 16,7 27,0 27,8 22,7 10 6 25 14 S 1020,6 42 23 0,0
16.09.2018 17:00:00 26,9 17,9 29,5 27,6 22,7 16 9 25 13 S 1020,6 20 45 0,0

tt = Température de l'air
td = dewpoint
tt 5cm = Température de l'air 5cm
tt -20cm = Température de l'air -20cm
tt -100cm = Température de l'air -100cm
ff = Vitesse du vent
fx = gusts
dd = Direction du vent
ppp = reduced air pressure
vv = visibility
sd = Ensoleillement
rr = Quantités de précipitations

stations d'obs. à proximité